IZ3VCM Weather Reports


Display with metric or nautical units.
time (UTC)temp
F
wind
direction
speed
MPH
gust
MPH
rain 1hr
in
rain 24hr
in
rain mn
in
humidity
%
barometer
mb
20260901180008 77 0 0.0 0.0 0.00 0.00 0.00 65 1016.3
20260901174506 78 90 0.0 1.0 0.00 0.00 0.00 64 1016.0
20260901173008 80 90 0.0 2.0 0.00 0.00 0.00 60 1016.1
20260901171506 83 111 1.0 3.0 0.00 0.00 0.00 58 1015.9
20260901170008 84 92 2.0 4.0 0.00 0.00 0.00 57 1015.9
20260901164506 85 99 3.0 4.0 0.00 0.00 0.00 56 1015.8
20260901163009 86 96 4.0 9.0 0.00 0.00 0.00 55 1016.0
20260901161506 87 111 5.0 7.0 0.00 0.00 0.00 54 1016.1
20260901160008 87 109 4.0 9.0 0.00 0.00 0.00 54 1016.1
20260901154506 88 84 3.0 5.0 0.00 0.00 0.00 54 1016.3
20260901153008 88 75 2.0 3.0 0.00 0.00 0.00 53 1016.2
20260901151506 88 106 4.0 5.0 0.00 0.00 0.00 53 1016.3
20260901150008 88 114 6.0 8.0 0.00 0.00 0.00 52 1016.3
20260901144505 89 94 2.0 2.0 0.00 0.00 0.00 53 1016.3
20260901143008 89 85 5.0 6.0 0.00 0.00 0.00 54 1016.4
20260901141505 89 66 5.0 7.0 0.00 0.00 0.00 54 1016.5
20260901140008 89 102 5.0 9.0 0.00 0.00 0.00 54 1016.5
20260901134505 89 107 5.0 9.0 0.00 0.00 0.00 54 1016.8
20260901133008 89 100 5.0 6.0 0.00 0.00 0.00 54 1016.9
20260901131505 89 101 6.0 8.0 0.00 0.00 0.00 54 1016.9
20260901130008 89 76 5.0 7.0 0.00 0.00 0.00 56 1016.9
20260901124506 89 89 5.0 8.0 0.00 0.00 0.00 55 1017.0
20260901123007 89 93 5.0 6.0 0.00 0.00 0.00 55 1017.1
20260901121505 89 86 6.0 7.0 0.00 0.00 0.00 54 1017.3
20260901120007 89 90 7.0 10.0 0.00 0.00 0.00 54 1017.1
20260901114505 89 121 5.0 14.0 0.00 0.00 0.00 56 1017.0
20260901113007 90 82 5.0 6.0 0.00 0.00 0.00 55 1017.0
20260901111506 90 71 5.0 6.0 0.00 0.00 0.00 55 1017.0
20260901110008 90 77 4.0 7.0 0.00 0.00 0.00 56 1017.0
20260901104506 89 56 5.0 9.0 0.00 0.00 0.00 58 1017.1
20260901103008 89 90 5.0 6.0 0.00 0.00 0.00 59 1017.2
20260901101506 88 45 5.0 10.0 0.00 0.00 0.00 59 1017.4
20260901100007 87 60 6.0 7.0 0.00 0.00 0.00 60 1017.5
20260901094505 87 64 6.0 8.0 0.00 0.00 0.00 60 1017.5
20260901093008 86 59 5.0 6.0 0.00 0.00 0.00 61 1017.6
20260901091505 86 77 7.0 9.0 0.00 0.00 0.00 60 1017.6
20260901090007 86 70 4.0 6.0 0.00 0.00 0.00 60 1017.6
20260901084506 86 49 6.0 6.0 0.00 0.00 0.00 59 1017.5
20260901083007 85 61 5.0 6.0 0.00 0.00 0.00 59 1017.5
20260901081505 85 91 4.0 5.0 0.00 0.00 0.00 60 1017.3
20260901080007 84 65 5.0 6.0 0.00 0.00 0.00 59 1017.1
20260901074505 83 65 2.0 4.0 0.00 0.00 0.00 61 1017.1
20260901073007 82 64 4.0 5.0 0.00 0.00 0.00 60 1017.1
20260901071505 82 47 4.0 6.0 0.00 0.00 0.00 61 1017.0
20260901070007 81 71 7.0 8.0 0.00 0.00 0.00 61 1017.0
20260831221505 70 0 0.0 0.0 0.00 0.00 0.00 83 1013.4
20260831220008 71 0 0.0 0.0 0.00 0.00 0.00 82 1013.1
20260831214506 72 0 0.0 0.0 0.00 0.00 0.00 79 1013.1
20260831213008 73 0 0.0 0.0 0.00 0.00 0.00 77 1013.0
20260831211505 75 0 0.0 0.0 0.00 0.00 0.00 75 1012.9
20260831210008 74 0 0.0 0.0 0.00 0.00 0.00 76 1012.7
20260831204506 74 0 0.0 0.0 0.00 0.00 0.00 75 1012.8
20260831203009 75 0 0.0 0.0 0.00 0.00 0.00 74 1012.7
20260831201505 76 0 0.0 0.0 0.00 0.00 0.00 71 1012.4
20260831200007 78 0 0.0 0.0 0.00 0.00 0.00 69 1012.4
20260831194506 80 135 1.0 2.0 0.00 0.00 0.00 65 1012.3
20260831193007 80 135 0.0 2.0 0.00 0.00 0.00 64 1012.3
20260831191505 80 135 1.0 3.0 0.00 0.00 0.00 63 1012.2
20260831190007 81 111 0.0 4.0 0.00 0.00 0.00 62 1012.3
20260831184504 82 150 1.0 2.0 0.00 0.00 0.00 60 1012.0
20260831183007 83 176 2.0 4.0 0.00 0.00 0.00 60 1011.9
20260831181505 82 146 1.0 3.0 0.00 0.00 0.00 61 1011.8